Location: Newark
(7.0858°N, 171.3717°E)
Time: 06:04:08
(UTC+00:00)

Courier 1B Rocket - Pass Details

Date: 30 November 2020
Orbit: 920 x 1202 km, 28.2° (Epoch: 20 January)

Event Time Altitude Azimuth Distance (km) Brightness Sun altitude
Rises 01:42:07 0° 289° (WNW) 3,824 8.2 55.3°
Reaches altitude 10° 01:45:01 10° 283° (WNW) 2,824 7.7 54.9°
Maximum altitude 01:51:32 47° 211° (SSW) 1,279 8.4 54.0°
Drops below altitude 10° 01:57:39 10° 139° (SE) 2,657 7.5 53.1°
Sets 02:00:19 0° 133° (SE) 3,578 8.0 52.6°
